STARLINK-1758 (46380 NORAD) Tracking and Keplerian Element Data

This shows tracking and keplerian element data for the satellite.

Feedback or suggestion? Click here.




ElementValue
Catalog46380
NameSTARLINK-1758
Epoch Orbit402
Epoch Day267.83334491
Epoch Year2020
RAAN329.7992
Inclination52.9996
Eccentricity0.0001354
Argument of Perigee61.2025
Mean Anonmoly169.2996
Mean Motion15.62753466
Decay Rate-0.00021198
L11 46380U 20062BH 20267.83334491 -.00021198 00000-0 -22626-3 0 9997
L22 46380 52.9996 329.7992 0001354 61.2025 169.2996 15.62753466 4026

Live tracking and technical data element details for STARLINK-1758 (NORAD 46380). STARLINK-1758 can be tracked NOW for your location showing map with azimuth and elevation plus other details from your city location.

Track the satellite on the map from your city or location and see movement details for azimuth, elevation, latitude, longitude, range, height, and movement on the map or in text.







IsCatalogInMostPopularTable: catalog: 46380, numindb: 8
Update: records affected: 1



GetName: 46380 STARLINK-1758

Hit Count: updated at: Thu, 24 Sep 2020 18:30:27 GMT